Regional Weather Roundup
Issued by NWS

Home | Current Version | Previous Version | Graphics & Text | Print | Product List | Glossary On
Versions: 1 2 3 4 5 6 7 8 9 10 11 12 13 14 15 16 17 18 19 20 21 22 23 24 25 26 27 28 29 30 31 32 33 34 35 36 37 38 39 40 41 42 43 44 45 46 47 48 49 50
000
ASUS45 KCYS 011710
RWRWY

WYOMING REGIONAL WEATHER ROUNDUP
NATIONAL WEATHER SERVICE CHEYENNE WY
1000 AM MST SUN FEB 01 2015

NOTE:  "FAIR" INDICATES FEW OR NO CLOUDS BELOW 12,000 FEET
WITH NO SIGNIFICANT WEATHER AND/OR OBSTRUCTIONS TO VISIBILITY.

WYZ001-011800-
YELLOWSTONE NATIONAL PARK

CITY           SKY/WX    TMP DP  RH WIND       PRES   REMARKS
LK YELLOWSTONE   N/A     16  13  88 CALM      30.16R
W YELLOWSTONE  NOT AVBL

$$
WYZ002>013-054>058-071-098>099-011800-
NORTHERN WYOMING

CITY           SKY/WX    TMP DP  RH WIND       PRES   REMARKS
JACKSON        SUNNY     10   7  85 CALM      30.20R
CODY           CLOUDY    18  14  86 S8        30.20F WCI   7
GREYBULL       FAIR      15   7  70 VRB3      30.30F
WORLAND        FAIR      16   8  71 E3        30.29F
SHERIDAN       FAIR      16   5  62 CALM      30.29F
BUFFALO        FAIR      11   5  77 SE5       30.24F WCI   3
GILLETTE       FAIR       9   2  73 NW8       30.28F WCI  -3
HULETT           N/A    N/A N/A N/A MISG        N/A
NEWCASTLE      FAIR       9   0  66 NW16      30.28S WCI  -9

$$
WYZ014>020-022>026-101>103-011800-
CENTRAL WYOMING

CITY           SKY/WX    TMP DP  RH WIND       PRES   REMARKS
BIG PINEY      FAIR      23  10  57 SW6       30.15R WCI  16
PINEDALE       FAIR      18   9  68 E6        30.14R WCI   9
DUBOIS         FAIR      27   5  39 NW10      30.10R WCI  17
LANDER         CLOUDY    22  17  81 SE6       30.19S WCI  14
RIVERTON       CLOUDY    21  14  74 SE6       30.20S WCI  13
CASPER         LGT SNOW  13   7  77 NE6       30.24R WCI   4
DOUGLAS        CLOUDY    19   7  59 NW21G28   30.24R WCI   3

$$
WYZ021-027>030-104>119-011800-
SOUTHERN WYOMING

CITY           SKY/WX    TMP DP  RH WIND       PRES   REMARKS
EVANSTON       FAIR      29  18  63 SW12      30.19R WCI  19
FORT BRIDGER   FAIR      33  19  56 W14G21    30.20R WCI  23
ROCK SPRINGS   FAIR      27  12  53 VRB6      30.16R WCI  20
DIXON          FAIR      27  19  74 CALM      30.20R
RAWLINS        FAIR      25  16  68 NW10      30.16R WCI  15
SARATOGA       FLURRIES  23  18  80 N7        30.15R WCI  15
LARAMIE        CLOUDY    19  10  68 NW24      30.08R WCI   2
CHEYENNE       CLOUDY    16  10  77 N15       30.11R WCI   1
TORRINGTON     FAIR      18   4  54 N14G25    30.24R WCI   4
PINE BLUFFS    CLOUDY    19  14  79 N21G28    30.17R WCI   3

$$



USA.gov is the U.S. government's official web portal to all federal, state and local government web resources and services.